Погода в Рузаевке

Погода в Рузаевке : погода сейчас, прогноз погоды и архив. Всё, что Вы хотите узнать о погоде в Рузаевке!

Поиск расширенной информации на нашем сайте:

Другие новости

Новости СМИ2

Главная страница сайта

Новости сайта

03.07.2017

Напоминаем, что на нашем специализированном сайте Метеоцентр.Азия вы можете получить высокодетализированные автоматические прогнозы погоды по пунктам России, СНГ и мира в авиационном формате (включающие направление и скорость ветра, видимость, явления погоды, количество и форму облачности, нижнюю и верхнюю границу облачности).

Рекомендуем: Самоделкин замена и ремонт кран.

Погода в Рузаевке - сегодня

Время (UTC), дата Ветер
(°,м/с) 
Видим.   Явления Облачность Т
(°С)
Тd
(°С)
f(%) Тe
(°С)
Pmin
(гПа)
dP
(гПа)
Po
(мм)
O2
(г/м3)
Тmin Tmax R s Состояние
почвы
03 19.08.17 тихо ()   20000 м    ясно 
+10.1 +6.7 79 +10  1027.4  1.1  750  290           
06 19.08.17 020 (С) 20000 м    8/8 1000 м 
[Cu med, cong]
+17.7 +6.1 46 +19  1026.3  -0.4  750  283  +3.2         
09 19.08.17 320 (СЗ) 20000 м    9/9 600 м кучево-дожд. 
[Cb calv]
+19.7 +5.8 40 +21  1025.4  -0.7  749  281           
12 19.08.17 310 (СЗ) 20000 м    8/8 600 м кучево-дожд. 
[Cb calv]
+21.9 +4.3 32 +22  1024.7  -0.5  749  279           
15 19.08.17 340 (С) 20000 м    4/4 600 м 
[Sc]
+17.7 +7.2 50 +19  1025  749  282    +22.4       
18 19.08.17 тихо ()   н/о    3/3 600 м 
[Sc]
+9.2 +5.7 79 +9  1026.2  0.3  749  291    +22.4       
21 19.08.17 тихо ()   н/о    3/0 средняя 
[Ac trans]
+6.3 +4.9 91 +6  1026.4  -0.1  749  294           
00 20.08.17 тихо ()   20000 м    6/0 средняя 
[Ac und]
+7.9 +5.5 85 +8  1026.5  0.3  749  292           
03 20.08.17 тихо ()   20000 м    6/0 средняя, верхняя 
[Ac trans|Ci fib]
+14.7 +7.4 62 +15  1026.1  0.3  749  285           
06 20.08.17 180 (Ю) 20000 м    4/0 средняя 
[Ac trans]
+22 +5.1 33 +22  1024.9  -0.6  749  278  +5.8         
09 20.08.17 030 (СВ) 20000 м    8/3 600 м кучево-дожд., средняя, верхняя 
[Cb calv|Ac trans|Ci fib]
+23.3 +5.2 31 +23  1023.4  -1.3  748  277           
12 20.08.17 300 (СЗ) 20000 м    8/4 600 м кучево-дожд., средняя 
[Cb calv|Ac trans]
+24.7 +5.5 29 +25  1022.4  -0.9  747  275           
15 20.08.17 070 (В) 20000 м    4/4 600 м кучево-дожд. 
[Cb calv]
+20 +6.8 42 +20  1022  -0.8  747  279    +25.2       
18 20.08.17 090 (В) н/о    4/4 600 м кучево-дожд. 
[Cb calv]
+16.7 +7.1 53 +18  1022.8  0.5  747  282    +25.2       
21 20.08.17 050 (СВ) н/о    8/8 600 м кучево-дожд. 
[Cb calv]
+15.7 +7.7 59 +16  1022.6  -0.3  747  283           
00 21.08.17 140 (ЮВ) 20000 м    9/9 600 м кучево-дожд. 
[Cb calv]
+15.4 +5.9 53 +16  1022.7  0.1  747  284           
03 21.08.17 030 (СВ) 20000 м    6/6 600 м кучево-дожд. 
[Cb calv]
+15.9 +6 52 +17  1023.3  0.6  747  284           
06 21.08.17 130 (ЮВ) 20000 м    6/4 600 м кучево-дожд., средняя 
[Cb calv|Ac trans]
+24.4 +3.1 25 +24  1022.4  -0.1  747  276  +14.9         
09 21.08.17 150 (ЮВ) 20000 м    6/4 600 м кучево-дожд., средняя 
[Cb calv|Ac trans]
+27.4 +4.1 22 +27  1021.5  -0.6  747  273           
12 21.08.17 150 (ЮВ) 20000 м    6/6 600 м кучево-дожд. 
[Cb calv]
+26.4 +3.6 23 +26  1021.1  -0.5  746  274           
15 21.08.17 090 (В) 20000 м    4/3 600 м кучево-дожд., верхняя 
[Cb calv|Ci fib]
+19.6 +7 44 +21  1021.8  0.1  746  279    +27.9       
18 21.08.17 340 (С) н/о    ясно 
+13.3 +7.2 67 +15  1023.3  0.9  747  286    +27.9       
21 21.08.17 020 (С) н/о    ясно 
+9.7 +6 78 +11  1024.2  0.5  748  290           
00 22.08.17 тихо ()   н/о    3/0 
[]
+7.8 +5.3 84 +8  1025.2  0.8  748  292           
03 22.08.17 340 (С) 20000 м    4/0 средняя, верхняя 
[Ac trans|Ci fib]
+14.7 +7.9 64 +16  1025.4  0.9  749  285           
Время (UTC), дата Ветер
(°,м/с) 
Видим.   Явления Облачность Т
(°С)
Тd
(°С)
f(%) Тe
(°С)
Pmin
(гПа)
dP
(гПа)
Po
(мм)
O2
(г/м3)
Тmin Tmax R s Состояние
почвы

Для получения пояснительной информации подведите курсор к названию столбца.

ПОГОДА в Рузаевке - архив

Всё, что Вы хотите узнать о погоде в Рузаевке - удобно и подробно!

Выберите нужную дату (начиная с 1 января 2015* года) и нажмите кнопку "Найти".
Будут отображены архивные сводки погоды по пункту Рузаевка, начиная с указанной даты.


Отображать данные в формате CSV (для использования в таблицах Excel)


Внимание! Наш архив погоды предназначен исключительно для личного некоммерческого использования в познавательных целях. Если Вам необходимы официальные справки о состоянии погоды (для производственных, юридических, коммерческих и т.п. целей), обращайтесь в органы Росгидромета.

*Примечание: данная дата относится к архиву по метеостанциям СССР (Россия, СНГ, Балтия).
Архив по метеостанциям Зарубежной Европы и Азии (кроме Китая) хранится 10 дней, по другим регионам земного шара (Китай, Африка, Америка, Австралия, Океания) - 1 день.

Рузаевка - район местоположения метеостанции


Название, широта, долгота, высота метеостанции:
Рузаевка 52.8°ш. 67°д. 227 м над ур. моря [Казахстан]

Дополнительная информация

В oтличие oт бoльшинства пoгoдных сайтoв мы публикуем пoдрoбную метеoинфoрмацию в детальнoм прoфессиoнальнoм фoрмате.

Характеристики температуры и влажнoсти вoздуха измеряются на высoте 2 м в тени вдали oт зданий и деревьев.
Скoрoсть ветра измеряется на высoте 10 м (на урoвне рoста челoвека скoрoсть ветра ниже в 1.5-2 раза). Если метеoстанция нахoдится в гoрoде или в лесу, тo скoрoсть ветра занижена на 2-4 м/с пo сравнению с oткрытым местoм. Скoрoсть ветра над акватoриями крупных рек и oзёр, а также на вершинах хoлмoв на 2-5 м/с выше, чем в oбычных услoвиях.
Атмoсфернoе давление в разных тoчках местнoсти мoжет значительнo oтличаться oт давления на метеoстанции, в зависимoсти oт услoвий рельефа (при пoдъёме на 10 м давление пoнижается примернo на 1 мм рт.ст.).